Temperature
18 18 18 17 17 17 17 17 18 17 17 18 18 18 18 18 18 18 18 18 18 18 18 18 18 17 17 17 17 17 17 17 17 17 16 16 16 15 15 15 15 15 15
18 17 18 17 17 17 17 17 17 17 18 18 18 18 18 18 18 18 18 18 18 18 18 18 18 18 17 17 17 17 17 17 17 17 16 16 16 16 15 15 15 15 15
18 18 17 17 17 17 17 17 17 18 18 18 18 18 18 18 18 18 18 18 18 18 18 18 18 18 18 17 17 17 17 17 17 17 17 17 16 16 16 15 15 15 15
18 18 17 17 17 17 17 17 17 17 18 18 18 18 18 18 18 18 18 18 18 18 18 18 18 18 18 17 17 17 17 18 17 17 17 17 16 16 15 15 15 15 15
18 18 17 18 18 17 18 18 18 18 18 18 18 18 18 18 18 18 18 18 18 18 18 18 18 18 18 17 17 17 17 18 17 17 17 17 17 16 16 15 15 15 15
17 17 17 18 18 18 18 18 18 18 17 18 17 17 17 18 18 18 18 18 18 18 18 18 18 18 18 18 17 17 17 17 17 17 17 17 17 16 16 15 15 15 15
17 17 18 18 18 18 18 17 17 17 17 17 17 17 17 17 17 18 18 18 18 18 18 18 19 18 18 18 18 17 17 17 17 17 17 17 17 16 16 15 15 15 14
17 17 18 18 18 18 17 17 16 16 16 16 16 16 15 16 17 18 19 19 19 18 18 18 18 18 18 18 18 18 18 17 17 17 17 17 17 16 16 15 15 15 14
18 18 18 17 17 16 16 17 16 16 15 15 16 15 15 16 16 17 18 19 19 18 18 18 18 18 18 18 18 18 18 17 17 17 17 16 16 16 15 15 15 15 14
17 17 17 17 17 16 16 16 15 15 15 15 15 15 15 15 15 16 17 18 18 18 18 18 18 18 18 17 17 17 17 17 17 17 17 17 17 16 16 15 15 15 15
16 16 16 16 16 16 16 15 15 15 14 14 15 15 15 15 15 15 16 16 17 17 18 17 18 18 18 17 17 17 17 17 17 17 17 17 17 17 16 16 15 15 15
15 16 16 16 15 15 15 14 14 14 14 14 14 14 14 14 15 15 16 16 16 17 17 17 17 17 17 17 17 17 17 17 17 17 17 17 17 17 16 16 16 15 15
15 15 15 15 14 14 14 14 13 14 14 14 14 14 14 14 14 14 14 15 15 15 16 17 17 17 17 17 17 17 17 17 17 17 17 17 17 16 16 16 16 15 15
15 15 15 14 14 14 14 14 14 14 13 13 13 13 13 14 14 14 14 14 14 15 15 15 16 16 16 16 16 16 16 16 17 17 17 16 16 16 16 16 15 15 15
13 14 14 14 14 14 14 14 14 13 13 13 13 13 13 13 13 13 13 14 14 14 14 14 14 15 15 15 15 15 16 16 16 16 16 15 15 16 16 16 15 15 14
13 13 13 13 13 13 13 13 13 13 13 13 13 13 13 13 13 13 13 13 13 13 13 13 13 13 14 15 15 15 15 15 16 16 15 15 15 15 15 15 15 15 14
13 13 12 12 12 13 13 13 13 13 13 13 13 13 13 13 13 13 13 13 13 13 13 14 13 14 14 14 14 14 15 15 16 15 15 15 15 14 14 15 15 14 14
13 13 12 12 12 12 12 12 12 12 12 12 12 12 12 12 12 12 12 12 13 13 13 14 14 14 14 14 14 14 14 15 15 15 15 14 14 14 14 14 14 14 13
13 13 12 12 12 12 12 12 12 11 11 11 11 11 11 11 11 11 12 12 13 13 13 13 13 13 14 14 14 14 14 14 14 14 14 14 14 14 14 13 13 13 13
13 13 12 11 11 11 11 11 11 11 11 11 11 11 11 11 11 11 11 12 12 12 12 12 12 12 13 13 13 13 14 14 14 14 14 14 14 14 14 14 13 13 13
13 13 12 11 11 11 11 11 11 11 11 11 11 11 11 11 11 11 11 11 11 11 11 12 12 12 12 12 12 13 13 13 14 14 14 14 14 14 14 14 14 13 13
12 12 12 12 12 11 11 11 11 11 11 10 11 11 11 11 11 11 11 11 11 11 11 11 11 12 11 12 12 12 13 13 13 14 14 14 14 14 14 14 14 14 14
12 12 12 12 12 12 11 11 11 11 11 11 11 11 11 11 11 11 11 11 11 11 11 11 11 11 11 11 11 12 12 12 12 12 13 13 14 14 14 14 14 14 14
12 12 11 12 12 11 11 11 11 11 11 11 11 11 11 11 11 11 11 11 11 12 11 11 11 11 11 11 11 11 11 12 12 12 12 12 13 13 13 14 14 14 14
11 11 11 11 11 11 11 11 11 11 11 11 11 11 11 10 10 11 11 11 11 11 11 11 11 11 12 12 12 11 12 12 11 11 11 11 11 12 12 12 13 13 13
11 11 11 11 11 11 11 11 11 11 11 11 10 10 10 10 10 10 10 11 11 11 11 12 12 12 12 12 12 12 12 11 11 11 11 11 11 11 11 12 12 12 12
Wind_Speed
6 6 6 7 8 9 7 7 7 7 8 10 10 11 12 12 14 13 14 18 20 20 19 17 17 18 19 18 17 17 17 17 17 17 18 19 19 19 20 22 23 21 20
7 6 6 6 7 9 9 7 6 5 6 7 8 9 11 11 13 13 13 15 19 21 20 19 18 16 16 17 17 16 16 17 17 16 16 16 17 18 19 22 24 23 23
11 8 6 6 7 8 8 7 7 6 6 6 9 9 9 10 11 13 13 13 15 18 19 18 19 16 16 16 17 17 16 17 18 16 14 15 15 16 19 22 25 25 24
15 10 7 7 9 8 6 5 6 5 6 6 7 8 9 8 10 12 14 13 13 14 16 17 17 17 17 17 18 18 18 17 17 16 15 15 14 15 17 19 25 26 25
13 9 7 7 9 6 5 5 6 6 6 7 7 8 8 9 10 9 11 12 13 13 12 13 17 17 18 17 18 18 18 17 16 17 17 16 16 16 16 18 24 27 27
10 9 6 6 5 5 6 6 6 6 6 7 6 8 9 9 8 9 11 10 10 11 10 10 11 12 17 18 20 19 18 18 18 19 19 18 17 17 17 17 23 28 29
9 8 5 5 3 4 6 6 5 7 6 3 4 6 8 10 9 11 10 9 9 8 9 9 9 10 12 17 19 20 19 19 20 20 19 19 18 17 16 17 22 28 30
6 3 1 1 3 4 6 6 6 5 5 4 4 3 6 7 7 8 8 9 9 6 7 8 9 10 10 10 12 15 16 17 19 20 21 21 20 18 17 17 22 29 31
2 1 2 2 4 4 6 7 8 9 9 6 8 7 6 5 3 3 3 5 5 4 5 5 7 9 9 9 9 11 13 16 17 17 19 19 20 18 18 17 21 29 32
4 2 2 2 3 3 5 6 7 7 8 7 6 8 9 4 3 3 3 3 3 3 5 5 7 8 9 9 10 11 11 11 11 11 10 11 13 14 15 17 20 27 32
5 3 1 2 3 2 4 4 5 5 5 6 6 4 4 5 5 5 5 3 3 4 4 6 6 7 7 8 9 8 8 8 7 7 9 11 13 14 14 18 21 23 31
3 1 1 3 3 2 3 4 4 4 4 3 4 4 3 3 4 5 7 6 5 4 4 5 7 7 6 6 8 8 8 6 4 7 9 11 13 15 17 19 21 22 29
1 1 1 2 2 3 4 4 3 4 3 3 2 2 2 3 2 2 3 4 4 3 3 4 5 4 5 4 6 7 6 5 4 7 8 11 13 15 17 19 21 23 30
2 2 3 2 3 4 5 5 4 4 4 4 4 4 3 2 1 1 1 2 3 2 2 4 3 3 3 3 5 6 4 3 3 6 8 9 10 12 13 15 18 23 31
2 3 4 5 5 6 6 5 4 4 4 4 5 6 5 5 6 5 3 1 1 2 2 1 2 4 3 3 3 1 1 1 3 5 5 5 8 4 6 13 18 21 30
3 6 6 6 5 5 5 4 3 3 4 4 4 5 5 3 4 5 5 3 1 2 2 1 2 4 5 3 2 1 2 2 2 2 2 2 4 6 7 13 21 25 28
4 5 5 4 3 3 4 4 4 4 5 5 5 6 7 6 5 5 5 4 3 2 4 4 3 4 4 5 3 3 4 3 1 0 4 5 5 7 10 15 21 24 26
5 5 4 4 2 3 3 5 6 6 8 8 7 7 6 5 5 5 4 4 3 2 2 4 3 2 3 4 4 3 4 3 2 2 4 6 6 7 10 16 18 20 21
7 6 6 5 4 4 4 5 6 7 7 7 7 6 5 5 5 5 6 5 5 4 2 2 2 2 2 2 3 3 3 4 3 4 6 6 7 7 10 16 19 20 21
7 6 5 5 5 5 5 6 7 7 6 6 5 4 4 4 4 5 6 7 7 7 5 3 2 2 3 2 3 3 2 3 3 3 5 6 7 8 11 14 15 16 18
7 6 6 6 6 5 5 6 6 6 6 6 6 6 5 6 4 3 3 5 6 5 5 4 4 4 4 4 3 2 2 2 2 3 4 4 4 5 7 11 12 14 16
7 7 7 7 7 6 7 9 8 7 7 7 7 7 8 9 8 7 7 6 5 5 6 5 5 4 6 5 5 3 0 2 2 1 1 2 2 3 5 7 10 13 15
6 7 6 6 7 5 8 12 11 8 7 6 6 7 8 8 8 7 9 10 10 9 7 4 4 5 5 5 7 5 4 2 1 2 1 1 1 0 1 4 5 8 13
7 6 5 5 6 5 8 14 12 7 6 6 6 6 7 8 9 7 7 10 10 10 9 6 5 5 4 6 5 3 3 3 4 4 3 1 2 2 1 3 8 6 4
5 5 6 6 6 6 5 11 9 5 5 6 7 7 7 8 11 13 11 10 10 10 8 9 7 7 8 8 8 4 4 3 3 1 1 0 1 2 2 2 3 4 2
6 7 7 6 7 7 6 5 7 4 4 5 5 7 9 9 10 12 9 8 9 9 9 10 11 11 11 11 11 8 4 2 1 2 1 0 0 2 2 2 3 2 1
Wind_Direction
226 237 244 251 256 256 250 254 250 247 256 262 257 257 258 257 258 252 257 269 272 269 262 256 255 252 253 255 252 250 250 250 249 243 241 239 238 235 226 218 212 207 207
220 226 239 249 259 258 255 252 250 248 254 258 263 256 258 264 263 255 254 262 266 267 265 259 253 253 254 255 252 247 248 250 249 247 247 248 244 238 231 222 216 208 205
219 221 230 242 251 262 266 261 258 260 264 259 261 263 264 265 264 262 256 253 259 263 262 258 255 252 244 243 246 247 247 248 249 248 246 250 247 243 235 222 216 210 204
216 216 223 233 241 247 248 252 255 263 263 258 259 264 267 265 262 263 265 256 250 253 258 257 252 249 246 242 246 247 245 242 245 245 244 248 248 247 244 226 214 210 202
208 206 220 231 236 244 247 245 251 243 258 261 263 270 266 268 270 268 264 261 253 247 247 256 257 250 246 243 243 241 239 239 242 246 246 246 245 244 246 233 212 206 199
206 206 215 231 238 250 263 261 264 261 257 264 268 273 272 268 264 265 262 262 258 253 247 248 257 255 251 246 241 238 235 234 239 245 247 244 242 242 242 232 211 203 197
196 196 199 217 231 249 268 279 287 283 272 250 265 269 262 260 259 258 252 251 251 249 246 244 246 253 252 249 248 241 234 235 237 241 244 242 238 239 238 231 209 201 195
157 166 127 339 317 309 299 286 272 278 274 223 235 277 281 276 256 249 241 237 246 247 250 246 236 246 250 251 248 243 239 239 240 240 240 242 239 237 236 230 213 201 194
7 17 22 339 301 286 284 286 277 270 276 253 224 239 264 258 283 284 267 251 249 249 255 255 256 259 259 250 253 253 250 250 248 246 246 246 245 241 235 232 219 203 195
303 331 344 309 295 294 285 283 287 284 279 281 261 235 242 244 236 293 307 299 283 257 257 260 260 255 249 252 249 251 256 255 250 250 257 259 255 246 237 233 226 208 195
279 267 317 308 307 302 297 312 327 312 288 286 286 277 247 241 232 228 263 289 291 261 254 255 265 265 253 241 239 242 237 219 220 250 261 262 262 257 245 235 230 215 195
252 289 335 341 329 316 305 317 324 325 319 302 288 270 252 242 240 227 240 247 256 266 273 271 270 266 262 238 239 236 202 198 225 252 261 269 269 262 250 238 226 212 195
166 39 357 330 328 318 325 326 322 324 326 333 334 307 274 254 242 234 250 271 270 278 285 277 269 274 286 251 221 192 184 198 237 267 283 286 278 260 245 232 217 207 190
132 66 39 13 352 0 8 5 357 350 349 359 26 31 15 17 341 258 225 249 267 268 268 282 306 332 332 293 216 174 176 213 258 291 303 306 297 272 245 214 204 194 181
133 91 62 51 44 38 28 21 13 356 354 15 39 51 45 18 8 351 329 279 251 300 280 344 323 347 334 280 244 178 227 263 305 318 323 331 324 302 210 180 181 173 167
109 94 79 68 60 48 29 18 359 2 26 29 31 34 49 28 3 351 342 335 256 177 257 294 269 293 297 317 295 263 269 231 289 336 60 50 37 66 121 146 153 154 160
102 104 97 82 47 18 21 14 7 13 31 24 29 48 48 41 25 14 352 326 300 231 246 256 240 259 269 276 231 208 221 209 250 114 104 102 104 96 118 135 145 156 164
80 83 84 74 41 20 19 21 18 22 31 34 39 46 43 50 50 42 14 358 330 315 258 281 277 268 269 269 247 218 221 219 209 170 138 125 116 130 137 125 130 143 150
70 67 71 66 50 44 43 42 51 54 56 46 34 33 26 38 43 32 20 5 342 335 315 288 309 322 292 297 280 243 223 219 216 194 171 155 139 130 141 145 146 151 154
100 97 85 68 46 40 50 54 72 77 58 41 24 17 19 22 23 21 15 8 1 357 359 342 338 307 298 314 296 269 237 215 211 187 157 157 155 153 155 157 162 168 173
99 96 79 63 52 47 50 70 86 78 51 39 23 16 29 36 38 20 5 9 8 6 9 14 3 354 349 333 306 274 229 183 212 205 174 164 152 157 175 180 180 187 191
87 74 64 62 59 51 64 84 91 83 66 52 32 10 21 29 25 24 23 31 36 26 19 21 16 5 346 337 328 325 249 171 209 269 188 163 168 187 182 193 197 204 210
99 78 68 77 76 67 92 96 95 89 69 49 36 24 34 30 25 18 18 33 43 44 32 12 13 4 337 337 333 356 9 28 47 1 328 121 77 357 109 129 163 205 220
110 88 60 63 77 67 104 103 92 79 68 51 42 35 44 43 30 18 28 35 30 28 17 15 2 349 336 329 332 343 5 40 43 34 342 53 44 59 64 116 107 107 185
109 86 59 62 73 53 67 102 94 80 71 55 44 37 36 36 19 25 36 32 27 15 5 27 26 11 359 7 3 3 31 57 82 47 322 74 46 22 27 10 74 80 70
117 102 83 68 77 65 36 86 97 89 74 63 48 34 37 37 29 31 40 33 29 360 357 24 19 12 8 14 24 18 348 7 97 113 132 191 16 55 25 13 335 286 219
Height
1545 1546 1547 1548 1549 1549 1549 1548 1548 1547 1547 1546 1545 1545 1544 1544 1545 1544 1544 1544 1543 1541 1541 1540 1540 1541 1541 1541 1541 1542 1542 1541 1540 1540 1540 1541 1541 1542 1543 1545 1546 1547 1549
1541 1543 1544 1545 1546 1546 1547 1546 1546 1545 1543 1543 1542 1542 1541 1541 1541 1541 1540 1540 1539 1538 1538 1537 1537 1537 1537 1537 1538 1538 1538 1537 1537 1536 1536 1536 1536 1538 1539 1541 1542 1543 1544
1539 1541 1541 1542 1542 1543 1542 1542 1542 1541 1540 1539 1538 1538 1538 1537 1537 1537 1536 1535 1535 1535 1534 1533 1533 1533 1533 1534 1535 1535 1534 1534 1534 1534 1532 1532 1533 1532 1533 1534 1536 1538 1540
1536 1538 1538 1539 1539 1539 1539 1538 1538 1537 1536 1535 1535 1534 1534 1533 1533 1533 1532 1531 1531 1531 1531 1530 1529 1529 1529 1529 1531 1531 1530 1530 1531 1531 1530 1529 1529 1529 1528 1528 1531 1533 1536
1532 1533 1534 1535 1536 1535 1535 1534 1533 1533 1531 1531 1531 1530 1529 1529 1528 1528 1528 1527 1527 1526 1526 1526 1526 1525 1525 1525 1526 1526 1526 1526 1527 1527 1526 1525 1525 1525 1525 1524 1525 1527 1531
1526 1527 1529 1530 1531 1531 1531 1530 1529 1528 1527 1527 1526 1525 1525 1524 1524 1523 1523 1523 1522 1521 1522 1522 1523 1522 1521 1521 1521 1521 1521 1522 1522 1523 1522 1522 1521 1521 1520 1519 1519 1521 1524
1519 1521 1523 1525 1526 1526 1526 1525 1523 1522 1521 1522 1520 1518 1517 1518 1517 1516 1516 1516 1516 1516 1516 1517 1519 1519 1518 1517 1517 1517 1517 1517 1518 1517 1517 1517 1516 1516 1516 1515 1515 1516 1519
1515 1517 1517 1519 1521 1521 1520 1520 1518 1516 1514 1515 1515 1512 1509 1508 1509 1509 1509 1509 1510 1511 1512 1512 1512 1513 1513 1513 1512 1512 1511 1512 1512 1512 1512 1512 1511 1510 1510 1510 1511 1511 1513
1514 1513 1513 1514 1517 1516 1515 1514 1513 1509 1506 1506 1509 1510 1508 1502 1503 1503 1503 1502 1504 1505 1507 1508 1508 1508 1508 1507 1507 1507 1507 1507 1507 1506 1506 1506 1506 1504 1503 1503 1504 1506 1508
1511 1511 1510 1511 1511 1510 1510 1507 1505 1503 1501 1500 1501 1500 1501 1500 1501 1498 1500 1499 1500 1500 1502 1503 1503 1503 1502 1501 1501 1501 1501 1501 1501 1501 1500 1500 1499 1497 1495 1496 1497 1500 1502
1509 1508 1506 1507 1506 1506 1505 1502 1500 1499 1498 1497 1495 1493 1493 1494 1495 1495 1496 1497 1497 1498 1498 1497 1498 1497 1497 1496 1496 1495 1495 1495 1494 1495 1494 1493 1491 1489 1488 1489 1491 1494 1497
1503 1502 1502 1503 1502 1501 1500 1499 1498 1496 1494 1493 1490 1489 1490 1491 1491 1491 1491 1491 1491 1491 1493 1494 1492 1492 1491 1491 1491 1491 1491 1490 1489 1489 1488 1485 1483 1482 1481 1482 1484 1488 1492
1496 1497 1498 1499 1498 1499 1497 1497 1495 1493 1493 1491 1488 1488 1487 1487 1488 1488 1488 1488 1487 1487 1488 1488 1488 1487 1487 1486 1485 1484 1485 1485 1485 1483 1481 1478 1476 1475 1473 1474 1478 1481 1486
1492 1493 1494 1494 1495 1495 1494 1494 1492 1491 1491 1489 1486 1486 1485 1485 1485 1485 1486 1486 1485 1484 1483 1482 1483 1483 1483 1483 1482 1480 1480 1481 1480 1478 1475 1473 1472 1469 1467 1469 1473 1476 1481
1490 1490 1491 1491 1491 1491 1492 1492 1491 1491 1489 1486 1483 1482 1483 1484 1483 1484 1484 1484 1485 1482 1480 1478 1479 1480 1480 1480 1479 1478 1477 1478 1477 1474 1471 1470 1469 1466 1465 1467 1470 1473 1478
1488 1487 1489 1490 1490 1490 1490 1490 1491 1490 1487 1484 1483 1481 1483 1483 1482 1482 1482 1482 1481 1480 1478 1477 1476 1477 1477 1476 1475 1474 1474 1475 1474 1471 1468 1467 1467 1466 1466 1467 1470 1473 1476
1485 1486 1488 1489 1489 1489 1487 1488 1488 1487 1485 1484 1483 1483 1482 1481 1481 1481 1480 1480 1478 1476 1475 1475 1475 1475 1474 1473 1471 1471 1471 1472 1471 1469 1467 1466 1467 1467 1467 1468 1470 1473 1475
1484 1486 1487 1487 1488 1487 1486 1485 1485 1485 1485 1485 1485 1483 1481 1479 1480 1479 1480 1478 1476 1474 1474 1473 1474 1474 1472 1471 1470 1468 1468 1468 1467 1466 1465 1466 1466 1467 1467 1468 1471 1474 1475
1484 1487 1487 1486 1486 1486 1485 1485 1485 1487 1487 1486 1485 1484 1483 1480 1479 1478 1479 1478 1475 1472 1471 1471 1471 1471 1469 1467 1467 1466 1464 1465 1465 1465 1464 1465 1466 1466 1468 1470 1473 1475 1477
1486 1488 1487 1486 1487 1487 1486 1487 1487 1489 1489 1487 1487 1485 1483 1482 1481 1480 1479 1476 1474 1472 1470 1470 1468 1467 1465 1462 1461 1461 1461 1462 1462 1464 1464 1465 1466 1467 1469 1471 1473 1476 1479
1486 1487 1486 1487 1488 1491 1491 1491 1490 1491 1490 1488 1489 1488 1485 1484 1483 1482 1481 1477 1475 1474 1471 1469 1468 1465 1464 1461 1458 1457 1457 1459 1459 1461 1462 1463 1465 1467 1469 1472 1473 1476 1479
1489 1488 1488 1491 1492 1494 1493 1494 1494 1494 1492 1491 1491 1491 1488 1486 1485 1484 1482 1479 1478 1476 1474 1470 1469 1467 1464 1461 1457 1454 1453 1456 1458 1460 1460 1462 1464 1466 1469 1471 1473 1476 1478
1491 1490 1492 1494 1494 1495 1495 1495 1495 1495 1495 1495 1494 1493 1491 1489 1488 1487 1484 1481 1479 1477 1475 1473 1471 1468 1465 1462 1459 1455 1453 1454 1456 1458 1459 1460 1461 1464 1467 1469 1471 1473 1475
1491 1493 1494 1495 1496 1496 1497 1498 1497 1496 1497 1497 1496 1495 1494 1492 1491 1489 1486 1483 1481 1479 1477 1476 1474 1471 1468 1465 1462 1459 1455 1455 1457 1458 1461 1460 1459 1460 1463 1464 1467 1469 1471
1490 1492 1494 1496 1497 1498 1499 1499 1499 1500 1499 1497 1497 1496 1495 1494 1493 1490 1488 1486 1484 1482 1480 1479 1477 1474 1471 1468 1466 1464 1462 1460 1459 1460 1462 1461 1457 1457 1459 1461 1462 1465 1467
1489 1492 1495 1497 1497 1499 1500 1501 1501 1501 1499 1498 1498 1497 1496 1495 1494 1491 1490 1488 1486 1484 1482 1481 1479 1476 1473 1470 1468 1466 1464 1464 1462 1462 1461 1462 1460 1458 1459 1459 1460 1461 1463